Regional Weather Roundup
Issued by NWS Green Bay, WI

Home | Current Version | Previous Version | Text Only | Print | Product List | Glossary On
Versions: 1 2 3 4 5 6 7 8 9 10 11 12 13 14 15 16 17 18 19 20 21 22 23 24 25 26 27 28 29 30 31 32 33 34 35 36 37 38 39 40 41 42 43 44 45 46 47 48 49 50
000
ASUS43 KGRB 200510
RWRGRB

NORTH-CENTRAL AND NORTHEAST WISCONSIN REGIONAL WEATHER ROUNDUP
NATIONAL WEATHER SERVICE GREEN BAY WI
1200 AM CDT SUN APR 20 2014

WIZ005-009-010>012-018-019-200600-
NORTH CENTRAL WISCONSIN

CITY           SKY/WX    TMP DP  RH WIND       PRES   REMARKS
IRONWOOD       MOCLDY    50  37  62 S16G24    29.98S
MANITOWISH WTR CLOUDY    44  38  80 S8        30.05F
ARBOR VITAE    CLOUDY    46  40  80 S8        30.06F
EAGLE RIVER    MOCLDY    44  35  69 S5        30.07F
LAND O LAKES   CLOUDY    47  36  66 S8        30.07F
RHINELANDER    LGT RAIN  46  36  68 S7        30.09F
PHILLIPS       CLOUDY    51  40  67 S8        30.03F
ANTIGO         LGT RAIN  45  37  75 SE8       30.12F
TOMAHAWK       CLOUDY    46  38  73 CALM      30.07F
MERRILL        CLOUDY    50  39  64 CALM      30.09F
$$

WIZ013-073-200600-
NORTHEAST WISCONSIN

CITY           SKY/WX    TMP DP  RH WIND       PRES   REMARKS
IRON MOUNTAIN  LGT RAIN  40  37  89 SE7       30.12F
MARINETTE      CLOUDY    45  34  65 SE6       30.17S
OCONTO         CLOUDY    48  35  60 S8        30.16F
$$

WIZ017-030-035>037-045-200600-
CENTRAL WISCONSIN

CITY           SKY/WX    TMP DP  RH WIND       PRES   REMARKS
MEDFORD        CLOUDY    53  40  62 SE9       30.06F
WAUSAU         LGT RAIN  53  38  56 SE10      30.08F
MOSINEE        CLOUDY    54  36  50 SE12      30.11F
MARSHFIELD     CLOUDY    57  38  48 S9        30.07F
WISC RAPIDS    CLOUDY    60  35  39 S9G17     30.11F
STEVENS POINT  CLOUDY    53  36  52 S7        30.12S
WAUPACA        CLOUDY    54  37  54 S8        30.14F
SHAWANO        CLOUDY    51  37  59 S5        30.14F
CLINTONVILLE   CLOUDY    50  37  62 S8        30.14F
$$

WIZ038-039-048-051-200600-
FOX VALLEY

CITY           SKY/WX    TMP DP  RH WIND       PRES   REMARKS
NWS GREEN BAY  CLOUDY    50  38  63 S14       30.16F
APPLETON       CLOUDY    50  34  53 S14       30.16F
OSHKOSH        CLOUDY    51  37  58 S13       30.16F
FOND DU LAC    CLOUDY    52  36  54 S18       30.17F
$$

WIZ022-050-052-200600-
EAST CENTRAL WISCONSIN

CITY           SKY/WX    TMP DP  RH WIND       PRES   REMARKS
STURGEON BAY   CLOUDY    45  30  57 S17G24    30.18F
MANITOWOC      MOCLDY    43  34  70 S8        30.21F
SHEBOYGAN      PTCLDY    41  33  73 S9        30.21F
$$

LMZ563-521-522-541>543-200600-
LAKESHORE

STATION/POSITION TIME  TEMP    WIND        PRES    VSBY  WAVE
                       AIR SEA DIR/SP/G                  HT/PER
                 (UTC) (F)     (DEG/KT/KT) (MB)    (MI)  (FT/S)
SHEBOYGAN LKSHOR 0500   43     180/ 10/ 10 1024.1S
KEWAUNEE LKSHORE 0500   40     170/ 10/ 11 1023.1S
NORTHPORT PIER   0500   38     150/  6/ 10 1023.0S
SISTER BAY LKSHO 0500   40     150/ 12/ 15   N/A
MENOMINEE LKSHOR 0500   38     150/  5/  6 1022.4S
$$



USA.gov is the U.S. government's official web portal to all federal, state and local government web resources and services.